"2022-11-19 00:01:00",3208005,5.085333,77.13817,7.23589,0.5661786,6.1,0,4.134667,69.68674,13.21989,0.8912153,6.48,0,-999,0,3.6,90.1,3.702,3.683,0.2,0,0,5.365,13.23,0.2,100.9639,2.989,2.989,2.989,100,0,0,0,411.6,152.6,152.6
"2022-11-19 00:02:00",3208006,4.141334,78.53451,5.498521,0.4490562,5.22,0,3.428,80.54527,9.095667,0.5049649,4.73,0,-999,0,3.6,89.4,3.679,3.676,0.2,0,0,5.354,13.22,0.2,100.9653,2.989,2.989,2.987,100,0,0,0,411.6,152.6,152.6
"2022-11-19 00:03:00",3208007,4.786666,66.85772,8.199327,0.5444589,5.67,0,3.341334,72.29562,10.58461,0.5330524,4.17,0,-999,0,3.6,89.8,3.708,3.683,0.2,0,0,5.354,13.22,0.2,100.966,2.987,2.989,2.987,100,0,0,0,411.6,152.6,152.6
"2022-11-19 00:04:00",3208008,4.448667,74.99737,6.711014,0.696265,5.67,0,2.863333,77.46137,6.716536,0.4712772,4.12,0,-999,0,3.6,90.6,3.729,3.683,0.2,0,0,5.349,13.22,0.2,100.9644,2.987,2.989,2.986,100,0,0,0,411.6,152.6,152.6
"2022-11-19 00:05:00",3208009,4.763334,94.06583,5.455179,0.6659796,5.77,0,3.614,89.39211,5.824616,0.4924198,4.56,0,-999,0,3.6,90.2,3.685,3.677,0.2,0,0,5.334,13.22,0.2,100.9679,2.985,2.987,2.985,100,0,0,0,411.6,152.6,152.6
"2022-11-19 00:06:00",3208010,3.509334,84.06461,4.357891,0.353958,3.94,0,3.790667,84.93228,6.525492,0.4497624,4.54,0,-999,0,3.6,89,3.653,3.668,0.2,0,0,5.334,13.23,0.2,100.9648,2.985,2.987,2.985,100,0,0,0,411.6,152.6,152.6
"2022-11-19 00:07:00",3208011,3.33,78.86736,8.15167,0.4531961,4.25,0,3.648667,79.4764,8.61431,0.4586773,4.72,0,-999,0,3.6,89.2,3.69,3.681,0.2,0,0,5.334,13.21,0.2,100.9625,2.985,2.985,2.983,100,0,0,0,411.6,152.6,152.6
"2022-11-19 00:08:00",3208012,3.982666,80.26729,8.798113,0.7259152,5.79,0,3.838,91.08734,7.197454,0.86538,6.36,0,-999,0,3.6,89.5,3.673,3.677,0.2,0,0,5.334,13.21,0.2,100.9682,2.982,2.985,2.982,100,0,0,0,411.6,152.6,152.6
"2022-11-19 00:09:00",3208013,5.038001,71.99939,11.86828,0.3591137,5.58,0,3.21,79.93887,6.494396,0.4930179,3.99,0,-999,0,3.6,89,3.685,3.682,0.2,0,0,5.32,13.22,0.2,100.9654,2.981,2.983,2.981,100,0,0,0,411.6,152.6,152.6
"2022-11-19 00:10:00",3208014,4.248,71.53377,4.673174,0.6473762,5.24,0,3.428666,70.01414,8.656336,0.5489975,4.29,0,-999,0,3.6,90.4,3.726,3.69,0.2,0,0,5.311,13.22,0.2,100.9669,2.981,2.982,2.981,100,0,0,0,411.6,152.6,152.6
"2022-11-19 00:11:00",3208015,4.990667,74.26391,4.185586,0.6003383,6.56,0,2.989334,70.86295,10.24492,0.5652902,4.36,0,-999,0,3.6,90.6,3.719,3.685,0.2,0,0,5.311,13.22,0.2,100.9725,2.98,2.982,2.98,100,0,0,0,411.6,152.6,152.6
"2022-11-19 00:12:00",3208016,5.291333,74.33694,7.166557,0.4646843,6.28,0,4.288,69.80939,6.633654,0.3967064,4.9,0,-999,0,3.6,90.2,3.682,3.668,0.2,0,0,5.309,13.24,0.2,100.9708,2.98,2.982,2.98,100,0,0,0,411.6,152.6,152.6
"2022-11-19 00:13:00",3208017,4.801333,75.79956,4.307805,0.5221605,5.58,0,3.878,74.60596,6.815686,0.6167679,4.85,0,-999,0,3.6,88.9,3.653,3.665,0.2,0,0,5.291,13.21,0.2,100.9707,2.98,2.981,2.98,100,0,0,0,411.6,152.6,152.6
"2022-11-19 00:14:00",3208018,4.764667,68.33302,5.246814,0.8837335,5.88,0,3.855333,66.11658,8.746449,0.505145,4.58,0,-999,0,3.6,89.7,3.664,3.664,0.2,0,0,5.291,13.22,0.2,100.9695,2.979,2.98,2.978,100,0,0,0,411.6,152.6,152.6
"2022-11-19 00:15:00",3208019,4.596666,73.80105,8.390023,0.2443131,5.05,0,3.930666,67.12359,10.4834,0.3038522,4.61,0,-999,0,3.6,90.2,3.673,3.665,0.2,0,0,5.291,13.23,0.2,100.9713,2.978,2.98,2.978,100,0,0,0,411.6,152.6,152.6
"2022-11-19 00:16:00",3208020,4.516,68.33604,6.060972,0.4985284,5.47,0,3.527333,81.67113,6.920841,0.5031033,4.7,0,-999,0,3.6,89.8,3.646,3.641,0.2,0,0,5.291,13.21,0.2,100.9754,2.976,2.978,2.976,100,0,0,0,411.6,152.6,152.6
"2022-11-19 00:17:00",3208021,4.191333,72.52917,4.867861,0.5233083,4.9,0,3.222,73.31442,7.966788,0.3589466,3.6,0,-999,0,3.6,89.8,3.661,3.664,0.2,0,0,5.288,13.22,0.2,100.9769,2.976,2.978,2.976,100,0,0,0,411.6,152.6,152.6
"2022-11-19 00:18:00",3208022,3.639333,65.46631,6.559531,0.5288537,4.55,0,2.945333,73.99993,4.645555,0.3447292,3.51,0,-999,0,3.6,90.1,3.656,3.66,0.2,0,0,5.27,13.22,0.2,100.9769,2.976,2.977,2.976,100,0,0,0,411.6,152.6,152.6
"2022-11-19 00:19:00",3208023,3.896667,76.77929,14.29378,0.4996354,5.09,0,2.386,73.47269,7.885158,0.466073,3.46,0,-999,0,3.6,90,3.664,3.667,0.2,0,0,5.268,13.22,0.2,100.9802,2.976,2.976,2.975,100,0,0,0,411.6,152.6,152.6
"2022-11-19 00:20:00",3208024,4.381999,66.46491,5.521155,0.8409693,5.92,0,2.833333,66.52007,7.681771,0.610548,4,0,-999,0,3.6,90.2,3.661,3.659,0.2,0,0,5.268,13.24,0.2,100.9784,2.976,2.976,2.975,100,0,0,0,411.6,152.6,152.6
"2022-11-19 00:21:00",3208025,4.708666,77.19405,5.202065,0.4552635,5.51,0,3.56,74.38145,8.561615,0.6419761,4.76,0,-999,0,3.6,90.3,3.674,3.66,0.2,0,0,5.265,13.23,0.2,100.9787,2.974,2.976,2.974,100,0,0,0,411.6,152.6,152.6
"2022-11-19 00:22:00",3208026,4.588,71.66653,5.721893,0.7324771,5.92,0,3.573333,74.35184,9.467904,0.4246201,4.29,0,-999,0,3.6,89.5,3.656,3.647,0.2,0,0,5.246,13.22,0.2,100.9807,2.972,2.974,2.972,100,0,0,0,411.6,152.6,152.6
"2022-11-19 00:23:00",3208027,4.076667,87.20458,9.219775,0.472478,5.24,0,3.046666,79.17265,11.23365,0.7586362,4.59,0,-999,0,3.6,90.2,3.679,3.665,0.2,0,0,5.246,13.22,0.2,100.9835,2.973,2.974,2.972,100,0,0,0,411.6,152.6,152.6
"2022-11-19 00:24:00",3208028,5.058667,73.47824,6.308681,0.6030574,6.16,0,3.857333,73.54306,13.75942,0.9189448,5.96,0,-999,0,3.6,90.1,3.671,3.663,0.2,0,0,5.246,13.23,0.2,100.9833,2.972,2.974,2.972,100,0,0,0,411.6,152.6,152.6
"2022-11-19 00:25:00",3208029,4.406667,69.13633,5.962852,0.4647818,5.14,0,3.429333,69.66937,4.713395,0.5062076,4.16,0,-999,0,3.6,90.3,3.687,3.671,0.2,0,0,5.246,13.23,0.2,100.984,2.972,2.972,2.972,100,0,0,0,411.6,152.6,152.6
"2022-11-19 00:26:00",3208030,3.784,77.55507,9.627291,0.5445585,4.59,0,3.422,77.70566,10.27838,0.4928312,4.4,0,-999,0,3.6,90.5,3.658,3.654,0.2,0,0,5.246,13.22,0.2,100.9874,2.97,2.972,2.97,100,0,0,0,411.6,152.6,152.6
"2022-11-19 00:27:00",3208031,3.897333,74.27076,7.350493,0.402036,4.86,0,3.207333,75.66268,6.412388,0.6675075,4.77,0,-999,0,3.6,89.1,3.626,3.647,0.2,0,0,5.243,13.23,0.2,100.9891,2.97,2.972,2.97,100,0,0,0,411.6,152.6,152.6
"2022-11-19 00:28:00",3208032,4.133333,67.92508,5.808853,0.4885307,4.93,0,2.993333,62.13475,6.611928,0.4106526,3.55,0,-999,0,3.6,89.9,3.657,3.656,0.2,0,0,5.244,13.22,0.2,100.9904,2.968,2.97,2.968,100,0,0,0,411.6,152.6,152.6
"2022-11-19 00:29:00",3208033,3.531333,65.00587,6.630704,0.3894589,4.01,0,2.94,71.0624,5.408489,0.411242,3.56,0,-999,0,3.6,90.5,3.662,3.645,0.2,0,0,5.232,13.23,0.2,100.987,2.968,2.97,2.968,100,0,0,0,411.6,152.6,152.6
"2022-11-19 00:30:00",3208034,3.773333,64.20246,8.949247,0.5814197,4.57,0,2.734666,66.00938,9.301321,0.5153234,3.81,0,-999,0,3.593,90.8,3.662,3.631,0.2,0,0,5.225,13.23,0.2,100.9879,2.968,2.969,2.968,100,0,0,0,411.6,152.6,152.6
"2022-11-19 00:31:00",3208035,4.178667,65.98746,10.33351,0.5887259,4.91,0,3.259333,61.42802,8.733452,0.6781786,4.32,0,-999,0,3.593,90.5,3.655,3.617,0.2,0,0,5.225,13.23,0.2,100.9906,2.968,2.969,2.967,100,0,0,0,411.6,152.6,152.6
"2022-11-19 00:32:00",3208036,4.919333,72.82079,6.496693,0.6901253,5.9,0,3.134,71.88917,9.400655,0.5906246,4.51,0,-999,0,3.567,90.4,3.643,3.612,0.2,0,0,5.225,13.23,0.2,100.9888,2.965,2.968,2.965,100,0,0,0,411.6,152.6,152.6
"2022-11-19 00:33:00",3208037,4.793334,77.46494,4.255496,0.4525436,5.87,0,3.963333,72.53627,6.777509,0.579398,5.2,0,-999,0,3.507,89.6,3.587,3.6,0.2,0,0,5.224,13.21,0.2,100.9862,2.965,2.967,2.965,100,0,0,0,411.6,152.6,152.6
"2022-11-19 00:34:00",3208038,4.407333,72.12788,5.686109,0.4878452,5.26,0,3.024667,72.85339,8.345264,0.5292746,4.02,0,-999,0,3.5,89.2,3.578,3.598,0.2,0,0,5.209,13.23,0.2,100.9848,2.965,2.965,2.964,100,0,0,0,411.6,152.6,152.6
"2022-11-19 00:35:00",3208039,4.391334,72.72077,5.853541,0.4158183,4.92,0,3.543334,71.91154,9.556129,0.526848,4.44,0,-999,0,3.5,89.7,3.578,3.599,0.2,0,0,5.203,13.22,0.2,100.9853,2.963,2.965,2.963,100,0,0,0,411.6,152.6,152.6
"2022-11-19 00:36:00",3208040,3.711333,77.66671,5.446885,0.2963976,4.2,0,2.917333,77.40569,7.846742,0.376731,3.48,0,-999,0,3.5,90.1,3.601,3.605,0.2,0,0,5.203,13.23,0.2,100.9818,2.963,2.965,2.963,100,0,0,0,411.6,152.6,152.6
"2022-11-19 00:37:00",3208041,4.540667,69.54038,5.861503,0.7636621,5.62,0,3.326667,67.59053,9.205458,0.7580736,4.58,0,-999,0,3.5,90.7,3.602,3.6,0.2,0,0,5.203,13.21,0.2,100.9801,2.962,2.963,2.962,100,0,0,0,411.6,152.6,152.6
"2022-11-19 00:38:00",3208042,3.978,76.26915,8.278573,0.4562922,4.78,0,3.597333,75.53049,4.377349,0.3497517,4.1,0,-999,0,3.5,89.9,3.578,3.586,0.2,0,0,5.203,13.23,0.2,100.9783,2.962,2.963,2.962,100,0,0,0,411.6,152.6,152.6
"2022-11-19 00:39:00",3208043,3.778,81.92819,9.267141,0.5517632,4.66,0,3.028,84.86106,6.070958,0.8657652,4.85,0,-999,0,3.5,90.1,3.586,3.598,0.2,0,0,5.203,13.21,0.2,100.9824,2.962,2.963,2.961,100,0,0,0,411.6,152.6,152.6
"2022-11-19 00:40:00",3208044,3.960667,79.86445,5.677383,0.7363012,5.44,0,3.89,80.31526,9.612813,0.8044211,5.54,0,-999,0,3.5,89.6,3.578,3.59,0.2,0,0,5.189,13.22,0.2,100.9829,2.963,2.963,2.961,100,0,0,0,411.6,152.6,152.6
"2022-11-19 00:41:00",3208045,5.042666,83.20272,6.84109,0.5885062,6.07,0,3.932,78.39745,7.268188,0.394803,4.82,0,-999,0,3.5,89.2,3.564,3.575,0.2,0,0,5.182,13.22,0.2,100.9842,2.962,2.963,2.961,100,0,0,0,411.6,152.6,152.6
"2022-11-19 00:42:00",3208046,3.782667,76.66493,4.920515,0.5739392,4.69,0,2.976,84.26982,6.842766,0.3441085,3.83,0,-999,0,3.5,89.3,3.564,3.584,0.2,0,0,5.182,13.21,0.2,100.9822,2.96,2.963,2.96,100,0,0,0,411.6,152.6,152.6
"2022-11-19 00:43:00",3208047,3.655333,76.78833,7.897902,0.5416502,4.44,0,2.641333,72.72599,6.521766,0.3976073,3.42,0,-999,0,3.5,91.1,3.601,3.603,0.2,0,0,5.182,13.23,0.2,100.9848,2.96,2.961,2.959,100,0,0,0,411.6,152.6,152.6
"2022-11-19 00:44:00",3208048,3.615333,82.69025,12.012,0.5906366,4.66,0,2.982667,86.49298,11.32923,0.4347025,3.93,0,-999,0,3.5,91.1,3.587,3.584,0.2,0,0,5.182,13.23,0.2,100.987,2.959,2.961,2.959,100,0,0,0,411.6,152.6,152.6
"2022-11-19 00:45:00",3208049,3.497333,75.19578,9.147599,0.5913427,4.75,0,2.722,73.13421,7.317791,0.4291262,3.5,0,-999,0,3.5,89.4,3.573,3.566,0.2,0,0,5.182,13.21,0.2,100.9836,2.959,2.96,2.959,100,0,0,0,411.6,152.6,152.6
"2022-11-19 00:46:00",3208050,4.522,80.15757,10.32288,0.6967754,6.02,0,3.237333,76.13126,9.083745,0.8615063,4.32,0,-999,0,3.5,89.4,3.574,3.573,0.2,0,0,5.181,13.23,0.2,100.9876,2.959,2.96,2.959,100,0,0,0,411.6,152.6,152.6
"2022-11-19 00:47:00",3208051,3.252,77.2832,8.723111,0.4949371,4.01,0,3.068666,77.40506,10.48218,0.5583413,4.13,0,-999,0,3.5,89.3,3.579,3.584,0.2,0,0,5.166,13.23,0.2,100.9844,2.958,2.959,2.958,100,0,0,0,411.6,152.6,152.6
"2022-11-19 00:48:00",3208052,4.831334,75.59405,7.98631,1.15564,7.02,0,3.464667,69.26102,6.50341,1.302315,6.27,0,-999,0,3.5,90.4,3.602,3.601,0.2,0,0,5.16,13.24,0.2,100.9896,2.959,2.959,2.958,100,0,0,0,411.6,152.6,152.6
"2022-11-19 00:49:00",3208053,5.088667,80.92637,8.046493,0.8821932,6.24,0,3.157333,80.53113,11.10578,0.7747813,4.61,0,-999,0,3.5,90.3,3.586,3.589,0.2,0,0,5.16,13.23,0.2,100.984,2.957,2.959,2.957,100,0,0,0,411.6,152.6,152.6
"2022-11-19 00:50:00",3208054,5.816,80.1241,5.234248,0.3819388,6.48,0,4.378,73.72235,7.173297,0.7414328,5.87,0,-999,0,3.5,89.4,3.557,3.549,0.2,0,0,5.16,13.22,0.2,100.9829,2.957,2.958,2.957,100,0,0,0,411.6,152.6,152.6
"2022-11-19 00:51:00",3208055,4.987334,81.0006,4.257135,0.5235072,6.63,0,4.033334,75.46475,7.162232,0.7827956,5.48,0,-999,0,3.5,89,3.539,3.534,0.2,0,0,5.16,13.21,0.2,100.9835,2.957,2.958,2.956,100,0,0,0,411.6,152.6,152.6
"2022-11-19 00:52:00",3208056,5.277333,79.19715,6.235144,0.5478987,6.33,0,3.612,86.13736,6.736729,0.5570301,4.73,0,-999,0,3.5,89.2,3.546,3.553,0.2,0,0,5.16,13.21,0.2,100.9817,2.957,2.957,2.956,100,0,0,0,411.6,152.6,152.6
"2022-11-19 00:53:00",3208057,5.732666,79.26344,4.652385,0.5915005,6.73,0,3.578667,74.08124,9.4843,0.7605425,4.51,0,-999,0,3.5,89.4,3.545,3.541,0.2,0,0,5.16,13.22,0.2,100.9822,2.957,2.957,2.955,100,0,0,0,411.6,152.6,152.6
"2022-11-19 00:54:00",3208058,5.328001,85.65794,6.035608,0.9200305,6.79,0,4.098667,84.30282,9.942353,0.826937,6.14,0,-999,0,3.5,89.3,3.539,3.532,0.2,0,0,5.16,13.21,0.2,100.9797,2.957,2.957,2.955,100,0,0,0,411.6,152.6,152.6
"2022-11-19 00:55:00",3208059,5.776667,80.13293,5.665707,0.7830936,7.11,0,4.775334,80.3971,4.627428,0.5412561,5.57,0,-999,0,3.5,88.9,3.501,3.512,0.2,0,0,5.159,13.23,0.2,100.983,2.955,2.957,2.955,100,0,0,0,411.6,152.6,152.6
"2022-11-19 00:56:00",3208060,5.086,82.86912,5.711428,0.3945428,5.73,0,3.998666,74.79918,5.328681,0.576297,4.83,0,-999,0,3.5,88.9,3.524,3.521,0.2,0,0,5.14,13.21,0.2,100.9847,2.957,2.957,2.955,100,0,0,0,411.6,152.6,152.6
"2022-11-19 00:57:00",3208061,4.533999,78.49937,7.16678,0.5108268,5.2,0,3.250667,78.91227,9.484892,0.4150577,3.81,0,-999,0,3.5,89.9,3.555,3.526,0.2,0,0,5.14,13.24,0.2,100.9827,2.956,2.957,2.955,100,0,0,0,411.6,152.6,152.6
"2022-11-19 00:58:00",3208062,4.612,79.5617,7.953963,0.6804038,5.74,0,4.16,67.71378,9.563381,0.4784977,4.93,0,-999,0,3.5,90.2,3.538,3.513,0.2,0,0,5.14,13.23,0.2,100.9847,2.956,2.957,2.955,100,0,0,0,411.6,152.6,152.6
"2022-11-19 00:59:00",3208063,4.496666,83.34946,7.603947,0.497134,5.22,0,4.39,90.83041,9.031319,0.4780516,5.12,0,-999,0,3.493,89,3.505,3.511,0.2,0,0,5.14,13.22,0.2,100.9844,2.955,2.956,2.955,100,0,0,0,411.6,152.6,152.6
"2022-11-19 01:00:00",3208064,5.034,78.05245,6.23546,0.4507742,5.86,0,3.959334,76.87478,7.17785,0.4983368,4.98,0,-999,0,3.5,88.6,3.532,3.513,0.2,0,0,5.14,13.23,0.2,100.9842,2.955,2.956,2.955,100,0,0,0,411.6,152.6,152.6
"2022-11-19 01:01:00",3208065,4.898,81.3927,6.038697,0.5028346,5.83,0,4.193334,77.59658,6.404142,0.6404027,5.26,0,-999,0,3.493,89.2,3.518,3.511,0.2,0,0,5.135,13.2,0.2,100.9877,2.955,2.955,2.955,100,0,0,0,411.6,152.6,152.6
"2022-11-19 01:02:00",3208066,5.269333,80.06309,7.197591,0.7770067,6.99,0,4.442667,84.74113,7.488576,0.5303139,5.14,0,-999,0,3.447,89.2,3.492,3.509,0.2,0,0,5.121,13.21,0.2,100.9856,2.954,2.955,2.954,100,0,0,0,411.6,152.6,152.6
"2022-11-19 01:03:00",3208067,4.172667,76.5782,8.177332,0.5115919,4.88,0,3.272667,88.19798,7.873137,0.4129321,4.13,0,-999,0,3.433,89.1,3.497,3.511,0.2,0,0,5.117,13.22,0.2,100.9849,2.955,2.955,2.954,100,0,0,0,411.6,152.6,152.6
"2022-11-19 01:04:00",3208068,4.146,75.06581,6.673525,0.3454041,4.81,0,3.15,77.79948,7.313065,0.659242,4.37,0,-999,0,3.467,90.2,3.547,3.511,0.2,0,0,5.117,13.22,0.2,100.9929,2.954,2.955,2.954,100,0,0,0,411.6,152.6,152.6
"2022-11-19 01:05:00",3208069,4.183333,71.73428,3.171232,0.286209,4.83,0,2.908667,67.68237,6.49867,0.3315793,3.52,0,-999,0,3.487,90.5,3.562,3.511,0.2,0,0,5.117,13.23,0.2,100.9958,2.955,2.955,2.954,100,0,0,0,411.6,152.6,152.6
"2022-11-19 01:06:00",3208070,4.22,66.80442,5.240393,0.4183141,4.86,0,2.902667,72.87286,7.566597,0.4554626,3.84,0,-999,0,3.493,90.6,3.566,3.513,0.2,0,0,5.117,13.23,0.2,100.9964,2.955,2.955,2.955,100,0,0,0,411.6,152.6,152.6
"2022-11-19 01:07:00",3208071,5.007333,70.33527,5.040631,0.9134876,6.52,0,3.217334,66.33711,8.361613,0.3623528,3.95,0,-999,0,3.487,90.9,3.573,3.517,0.2,0,0,5.117,13.23,0.2,100.9991,2.955,2.955,2.954,100,0,0,0,411.6,152.6,152.6
"2022-11-19 01:08:00",3208072,6.211333,73.80194,3.814571,0.4273308,6.93,0,4.173334,71.05782,6.644462,0.7786369,6.17,0,-999,0,3.487,89.8,3.527,3.511,0.2,0,0,5.117,13.23,0.2,100.9975,2.955,2.955,2.954,100,0,0,0,411.6,152.6,152.6
"2022-11-19 01:09:00",3208073,5.465999,75.73422,3.129215,0.4716467,6.08,0,4.298667,73.59946,4.825938,0.7626345,5.98,0,-999,0,3.427,88.7,3.49,3.499,0.2,0,0,5.109,13.22,0.2,101.0004,2.953,2.955,2.953,100,0,0,0,411.6,152.6,152.6
"2022-11-19 01:10:00",3208074,5.117334,71.06726,4.371352,0.4657963,5.83,0,3.93,67.99998,2.874711,0.5839862,4.82,0,-999,0,3.48,89.2,3.516,3.513,0.2,0,0,5.098,13.23,0.2,101.0032,2.953,2.955,2.953,100,0,0,0,411.6,152.6,152.6
"2022-11-19 01:11:00",3208075,5.65,65.96558,9.482613,0.4841074,6.19,0,3.143333,70.93132,11.14881,0.9542792,5.24,0,-999,0,3.48,90.2,3.513,3.511,0.2,0,0,5.097,13.23,0.2,101.004,2.953,2.955,2.953,100,0,0,0,411.6,152.6,152.6
"2022-11-19 01:12:00",3208076,4.758667,79.67378,6.092649,0.7220329,5.83,0,4.540667,79.19301,9.175809,0.6760519,5.94,0,-999,0,3.42,89.4,3.455,3.479,0.2,0,0,5.097,13.22,0.2,101.0095,2.953,2.954,2.951,100,0,0,0,411.6,152.6,152.6
"2022-11-19 01:13:00",3208077,5.583333,72.93635,6.743256,1.444067,7.86,0,4.341333,69.65836,8.43074,1.144056,7.49,0,-999,0,3.413,88.7,3.475,3.49,0.2,0,0,5.097,13.22,0.2,101.0098,2.952,2.953,2.952,100,0,0,0,411.6,152.6,152.6
"2022-11-19 01:14:00",3208078,7.068667,87.1327,4.615921,0.9663807,8.22,0,4.74,85.07689,6.376697,0.7799231,6.11,0,-999,0,3.4,88.6,3.465,3.471,0.2,0,0,5.097,13.21,0.2,101.01,2.952,2.953,2.951,100,0,0,0,411.6,152.6,152.6
"2022-11-19 01:15:00",3208079,6.657333,72.87412,6.709953,1.067411,8.65,0,5.463334,79.24207,10.0912,1.038818,6.82,0,-999,0,3.4,88.8,3.469,3.466,0.2,0,0,5.095,13.22,0.2,101.0064,2.951,2.953,2.951,100,0,0,0,411.6,152.6,152.6
"2022-11-19 01:16:00",3208080,6.418,78.26745,5.049973,0.7422955,7.55,0,5,79.33298,7.2961,1.032912,7.21,0,-999,0,3.4,88.7,3.431,3.453,0.2,0,0,5.082,13.21,0.2,101.0105,2.951,2.952,2.951,100,0,0,0,411.6,152.6,152.6
"2022-11-19 01:17:00",3208081,5.753334,79.93505,4.137801,0.789841,7.38,0,4.532,79.74613,5.605171,0.7558411,5.68,0,-999,0,3.4,89.2,3.443,3.453,0.2,0,0,5.074,13.21,0.2,101.0099,2.95,2.951,2.95,100,0,0,0,411.6,152.6,152.6
"2022-11-19 01:18:00",3208082,6.926,79.5323,6.456718,1.111748,8.81,0,4.454667,78.49603,8.061257,0.6705707,5.92,0,-999,0,3.4,88.9,3.427,3.453,0.2,0,0,5.074,13.2,0.2,101.0141,2.95,2.951,2.95,100,0,0,0,411.6,152.6,152.6
"2022-11-19 01:19:00",3208083,5.498667,84.7401,7.526485,0.6795966,6.47,0,5.238667,84.75922,9.100759,0.5414409,6.53,0,-999,0,3.4,88.2,3.431,3.452,0.2,0,0,5.076,13.21,0.2,101.0153,2.95,2.951,2.95,100,0,0,0,411.6,152.6,152.6
"2022-11-19 01:20:00",3208084,5.444,85.31913,5.897962,0.4938393,6.02,0,4.360667,86.17411,9.011811,0.5868954,5.32,0,-999,0,3.4,88.9,3.447,3.45,0.2,0,0,5.074,13.21,0.2,101.016,2.95,2.951,2.95,100,0,0,0,411.6,152.5,152.6
"2022-11-19 01:21:00",3208085,5.295334,77.40129,4.421703,0.4347239,6.08,0,4.777333,80.52152,10.0031,0.7961362,6.15,0,-999,0,3.4,89.2,3.44,3.453,0.2,0,0,5.074,13.23,0.2,101.0208,2.95,2.951,2.95,100,0,0,0,411.6,152.5,152.6
"2022-11-19 01:22:00",3208086,6.274666,67.20139,5.738269,0.5225561,7.23,0,4.180666,73.6073,6.445893,0.6691733,5.32,0,-999,0,3.4,89.6,3.445,3.452,0.2,0,0,5.074,13.22,0.2,101.0183,2.951,2.951,2.95,100,0,0,0,411.6,152.6,152.6
"2022-11-19 01:23:00",3208087,5.815333,75.53056,5.287579,0.5178528,6.59,0,4.302,70.93908,6.492146,0.8947268,5.72,0,-999,0,3.4,89.9,3.478,3.452,0.2,0,0,5.074,13.22,0.2,101.0199,2.951,2.951,2.95,100,0,0,0,411.6,152.6,152.6
"2022-11-19 01:24:00",3208088,5.455333,72.28117,7.978908,0.7495142,6.88,0,4.550667,69.33467,5.823719,0.6681862,5.72,0,-999,0,3.4,89.8,3.455,3.444,0.2,0,0,5.073,13.22,0.2,101.0213,2.952,2.953,2.951,100,0,0,0,411.6,152.5,152.6
"2022-11-19 01:25:00",3208089,4.202667,61.99829,4.113832,0.5124642,4.96,0,3.971333,65.19939,2.856138,0.3629116,4.45,0,-999,0,3.393,89.5,3.426,3.44,0.2,0,0,5.062,13.22,0.2,101.0217,2.952,2.953,2.952,100,0,0,0,411.6,152.5,152.6
"2022-11-19 01:26:00",3208090,4.766667,75.35383,13.46522,0.5353836,6.01,0,3.574,65.67291,15.2635,0.5201896,4.29,0,-999,0,3.4,90.2,3.449,3.452,0.2,0,0,5.051,13.24,0.2,101.0232,2.953,2.953,2.951,100,0,0,0,411.6,152.6,152.6
"2022-11-19 01:27:00",3208091,5.395333,73.20229,6.359065,0.6811154,6.61,0,4.292666,75.7152,13.16811,0.7980348,5.87,0,-999,0,3.4,89.6,3.422,3.422,0.2,0,0,5.051,13.2,0.2,101.0248,2.952,2.953,2.952,100,0,0,0,411.6,152.5,152.6
"2022-11-19 01:28:00",3208092,6.112,81.54311,10.66427,1.498026,8.9,0,4.642,82.92314,9.771988,1.427068,7.97,0,-999,0,3.307,88.2,3.376,3.393,0.2,0,0,5.051,13.21,0.2,101.024,2.952,2.953,2.951,100,0,0,0,411.6,152.6,152.6
"2022-11-19 01:29:00",3208093,5.009333,60.89313,9.252516,0.4200234,5.74,0,4.457334,59.09763,12.13444,1.150545,7.12,0,-999,0,3.333,88.2,3.408,3.421,0.2,0,0,5.051,13.21,0.2,101.0259,2.951,2.953,2.951,100,0,0,0,411.6,152.5,152.5
"2022-11-19 01:30:00",3208094,5.649333,71.00827,6.759438,0.7829131,7.01,0,4.335333,69.21769,10.06503,0.723739,5.35,0,-999,0,3.3,89.1,3.373,3.375,0.2,0,0,5.05,13.2,0.2,101.0238,2.951,2.952,2.951,100,0,0,0,411.6,152.6,152.5
"2022-11-19 01:31:00",3208095,5.582,72.79571,9.438717,0.7115167,6.78,0,4.342,72.22522,7.276469,0.9636195,6.51,0,-999,0,3.3,88.6,3.359,3.376,0.2,0,0,5.032,13.22,0.2,101.0303,2.951,2.951,2.951,100,0,0,0,411.6,152.5,152.5
"2022-11-19 01:32:00",3208096,6.007334,81.53503,4.030058,1.077859,7.69,0,4.77,84.61252,9.486861,1.1169,6.2,0,-999,0,3.3,89,3.364,3.366,0.2,0,0,5.031,13.21,0.2,101.0268,2.95,2.952,2.949,100,0,0,0,411.6,152.5,152.5
"2022-11-19 01:33:00",3208097,6.077333,76.05817,5.230278,0.5747284,6.94,0,5.11,72.89227,10.29781,0.7671245,6.43,0,-999,0,3.3,88.2,3.337,3.357,0.2,0,0,5.031,13.21,0.2,101.03,2.95,2.95,2.947,100,0,0,0,411.6,152.5,152.5
"2022-11-19 01:34:00",3208098,5.76,79.33,4.907003,0.4816222,6.49,0,4.427333,76.86087,6.214005,0.6829296,5.72,0,-999,0,3.3,88,3.339,3.355,0.2,0,0,5.031,13.22,0.2,101.0293,2.949,2.951,2.949,100,0,0,0,411.6,152.5,152.5
"2022-11-19 01:35:00",3208099,5.526,69.53848,6.733088,0.4977389,6.29,0,4.318666,75.66537,6.275181,0.7480094,5.58,0,-999,0,3.3,88.3,3.336,3.343,0.2,0,0,5.031,13.21,0.2,101.029,2.95,2.95,2.947,100,0,0,0,411.6,152.5,152.5
"2022-11-19 01:36:00",3208100,5.192,78.26492,4.93062,0.5204254,5.97,0,4.616667,85.87138,5.00085,0.7568061,5.76,0,-999,0,3.3,88.6,3.357,3.333,0.2,0,0,5.018,13.21,0.2,101.0337,2.947,2.95,2.947,100,0,0,0,411.6,152.5,152.5
"2022-11-19 01:37:00",3208101,5.572668,64.20288,5.113506,0.9722925,7.09,0,4.314001,69.67966,7.277735,0.489078,5.01,0,-999,0,3.3,88.5,3.372,3.352,0.2,0,0,5.012,13.22,0.2,101.0328,2.95,2.95,2.949,100,0,0,0,411.6,152.5,152.5
"2022-11-19 01:38:00",3208102,6.267999,76.46875,6.288854,0.6367751,7.36,0,5.008667,78.34602,9.758864,0.8053643,6.21,0,-999,0,3.3,88.9,3.341,3.324,0.2,0,0,5.009,13.21,0.2,101.0287,2.951,2.951,2.95,100,0,0,0,411.6,152.6,152.5
"2022-11-19 01:39:00",3208103,6.688666,74.732,3.990298,1.01456,8.71,0,5.501333,71.5732,11.87651,1.164628,7.29,0,-999,0,3.3,88.3,3.301,3.297,0.2,0,0,5.009,13.2,0.2,101.0283,2.95,2.951,2.95,100,0,0,0,411.6,152.5,152.5
"2022-11-19 01:40:00",3208104,5.397334,77.33216,4.711037,0.5439297,6.14,0,3.724,77.19038,8.535179,0.3427497,4.25,0,-999,0,3.287,88.6,3.324,3.302,0.2,0,0,5.009,13.21,0.2,101.0239,2.95,2.951,2.95,100,0,0,0,411.6,152.5,152.5
"2022-11-19 01:41:00",3208105,4.863333,75.5331,4.513687,0.4134193,5.55,0,3.868666,78.53152,6.710719,0.5622321,4.83,0,-999,0,3.26,88.8,3.309,3.296,0.2,0,0,5,13.21,0.2,101.0255,2.951,2.951,2.951,100,0,0,0,411.6,152.5,152.5
"2022-11-19 01:42:00",3208106,5.254,76.08115,6.205296,0.5699801,6.27,0,3.698,73.26129,6.243355,0.4648612,4.49,0,-999,0,3.213,88.9,3.291,3.285,0.2,0,0,4.99,13.23,0.2,101.0287,2.951,2.952,2.951,100,0,0,0,411.6,152.5,152.5
"2022-11-19 01:43:00",3208107,4.614667,67.53462,6.171645,0.8641671,5.75,0,3.768667,72.60002,5.362152,0.6013637,5.02,0,-999,0,3.207,89.1,3.295,3.28,0.2,0,0,4.988,13.2,0.2,101.0337,2.951,2.951,2.951,100,0,0,0,411.6,152.5,152.5
"2022-11-19 01:44:00",3208108,5.703333,61.5554,11.42912,0.8906752,6.95,0,4.481333,69.80836,12.76861,1.022251,6.72,0,-999,0,3.2,89,3.28,3.261,0.2,0,0,4.988,13.23,0.2,101.0365,2.951,2.953,2.951,100,0,0,0,411.6,152.6,152.5
"2022-11-19 01:45:00",3208109,5.768667,71.73338,5.169457,0.7298391,7.19,0,5.094,73.19958,4.290668,0.5655771,6.3,0,-999,0,3.2,87.8,3.205,3.21,0.2,0,0,4.988,13.2,0.2,101.0355,2.951,2.952,2.951,100,0,0,0,411.6,152.5,152.5
"2022-11-19 01:46:00",3208110,4.682666,62.24716,7.52513,1.09273,7.23,0,4.226667,64.01377,11.45953,0.8224245,5.69,0,-999,0,3.153,88,3.184,3.192,0.2,0,0,4.987,13.21,0.2,101.0322,2.951,2.952,2.951,100,0,0,0,411.6,152.5,152.5
"2022-11-19 01:47:00",3208111,5.578666,57.6667,5.566984,0.3748577,6.13,0,4.947333,61.80229,8.609455,0.3493512,5.45,0,-999,0,3.1,88.5,3.18,3.168,0.2,0,0,4.975,13.21,0.2,101.0371,2.951,2.953,2.951,100,0,0,0,411.6,152.5,152.5